Location: Cedar Brake
(32.2526°N, 97.8459°W)
Time: 08:10:24
(UTC+00:00)

Cosmos 2084 Rocket - Pass Details

Date: 22 April 2026
Orbit: 530 x 579 km, 62.8° (Epoch: 15 May)

Event Time Altitude Azimuth Distance (km) Brightness Sun altitude
Rises 10:01:23 0° 331° (NNW) 2,767 6.9 -22.7°
Reaches altitude 10° 10:03:37 10° 333° (NNW) 1,874 6.1 -22.3°
Maximum altitude 10:07:50 76° 58° (ENE) 594 3.5 -21.5°
Drops below altitude 10° 10:12:05 10° 146° (SE) 1,881 6.1 -20.7°
Sets 10:14:20 0° 147° (SSE) 2,778 6.9 -20.3°
